• In France
  • List of Countries
  • For 7 days
  • Water Temperature
  • Satellite Maps
  • Weather Map
  • Weather Widgets
  • user-avatar
    Login

    Hourly Weather Alajuela

    Today, 18 August, Saturday

    Time Temperature Precipitation Wind Pressure Humidity
    00:00 +21°C° 0 mm 1 mps 682 mmHg 86%
    01:00 +20°C° 0 mm 1 mps 682 mmHg 85%
    02:00 +20°C° 0 mm 1 mps 681 mmHg 85%
    03:00 +20°C° 0 mm 1 mps 681 mmHg 84%
    04:00 +20°C° 0 mm 1 mps 681 mmHg 84%
    05:00 +20°C° 0 mm 1 mps 681 mmHg 84%
    06:00 +20°C° 0 mm 1 mps 681 mmHg 84%
    07:00 +23°C° 0 mm 1 mps 682 mmHg 77%
    08:00 +25°C° 0 mm 1 mps 683 mmHg 70%
    09:00 +27°C° 0 mm 1 mps 683 mmHg 62%
    10:00 +28°C° 0 mm 2 mps 683 mmHg 60%
    11:00 +29°C° 0 mm 2 mps 683 mmHg 58%
    12:00 +29°C° 0 mm 2 mps 683 mmHg 56%
    13:00 +29°C° 0.2 mm 2 mps 682 mmHg 58%
    14:00 +28°C° 0.2 mm 2 mps 682 mmHg 60%
    15:00 +28°C° 0.2 mm 2 mps 681 mmHg 62%
    16:00 +26°C° 0.1 mm 2 mps 681 mmHg 70%
    17:00 +25°C° 0.1 mm 1 mps 680 mmHg 78%
    18:00 +23°C° 0.1 mm 1 mps 680 mmHg 85%
    19:00 +23°C° 0 mm 1 mps 680 mmHg 87%
    20:00 +22°C° 0 mm 1 mps 681 mmHg 89%
    21:00 +19°C° 0 mm 0 mps 681 mmHg 91%
    22:00 +21°C° 0 mm 1 mps 681 mmHg 90%
    23:00 +21°C° 0 mm 1 mps 681 mmHg 88%

    Tomorrow, 19 August, Sunday

    Time Temperature Precipitation Wind Pressure Humidity
    00:00 +20°C° 0 mm 1 mps 681 mmHg 86%
    01:00 +20°C° 0 mm 1 mps 680 mmHg 84%
    02:00 +20°C° 0 mm 1 mps 680 mmHg 82%
    03:00 +20°C° 0 mm 1 mps 680 mmHg 80%
    04:00 +20°C° 0 mm 1 mps 680 mmHg 79%
    05:00 +20°C° 0 mm 1 mps 680 mmHg 79%
    06:00 +20°C° 0 mm 1 mps 680 mmHg 79%
    07:00 +22°C° 0 mm 1 mps 681 mmHg 72%
    08:00 +25°C° 0 mm 1 mps 682 mmHg 64%
    09:00 +28°C° 0 mm 1 mps 683 mmHg 57%
    10:00 +28°C° 0.1 mm 1 mps 683 mmHg 57%
    11:00 +28°C° 0.1 mm 2 mps 682 mmHg 58%
    12:00 +29°C° 0.1 mm 2 mps 682 mmHg 58%
    13:00 +28°C° 1.2 mm 2 mps 681 mmHg 64%
    14:00 +27°C° 1.2 mm 2 mps 681 mmHg 69%
    15:00 +26°C° 1.2 mm 2 mps 680 mmHg 75%
    16:00 +25°C° 1.2 mm 1 mps 680 mmHg 80%
    17:00 +24°C° 1.2 mm 1 mps 680 mmHg 85%
    18:00 +21°C° 1.2 mm 0 mps 680 mmHg 90%
    19:00 +20°C° 0.2 mm 0 mps 680 mmHg 91%
    20:00 +20°C° 0.2 mm 0 mps 681 mmHg 91%
    21:00 +20°C° 0.2 mm 0 mps 681 mmHg 91%
    22:00 +20°C° 0 mm 0 mps 681 mmHg 91%
    23:00 +20°C° 0 mm 0 mps 681 mmHg 90%

    Day after tomorrow, 20 August, Monday

    Time Temperature Precipitation Wind Pressure Humidity
    00:00 +19°C° 0 mm 0 mps 681 mmHg 89%
    01:00 +19°C° 0 mm 0 mps 680 mmHg 88%
    02:00 +19°C° 0 mm 0 mps 680 mmHg 88%
    03:00 +21°C° 0 mm 1 mps 680 mmHg 87%
    04:00 +21°C° 0.1 mm 1 mps 680 mmHg 86%
    05:00 +21°C° 0.1 mm 1 mps 680 mmHg 86%
    06:00 +21°C° 0.1 mm 1 mps 680 mmHg 85%
    07:00 +22°C° 0.2 mm 1 mps 681 mmHg 82%
    08:00 +23°C° 0.2 mm 1 mps 682 mmHg 78%
    09:00 +25°C° 0.2 mm 1 mps 682 mmHg 75%
    10:00 +26°C° 0.1 mm 1 mps 682 mmHg 71%
    11:00 +27°C° 0.1 mm 1 mps 682 mmHg 67%
    12:00 +28°C° 0.1 mm 2 mps 682 mmHg 63%
    13:00 +27°C° 1.1 mm 2 mps 682 mmHg 68%
    14:00 +26°C° 1.1 mm 2 mps 681 mmHg 73%
    15:00 +25°C° 1.1 mm 1 mps 680 mmHg 78%
    16:00 +24°C° 1.5 mm 1 mps 680 mmHg 82%
    17:00 +23°C° 1.5 mm 1 mps 680 mmHg 86%
    18:00 +22°C° 1.5 mm 1 mps 680 mmHg 91%
    19:00 +22°C° 0.5 mm 1 mps 681 mmHg 90%
    20:00 +22°C° 0.5 mm 1 mps 681 mmHg 90%
    21:00 +22°C° 0.5 mm 1 mps 682 mmHg 90%
    22:00 +21°C° 0.3 mm 1 mps 681 mmHg 90%
    23:00 +21°C° 0.3 mm 1 mps 681 mmHg 90%

    21 August, Tuesday

    Time Temperature Precipitation Wind Pressure Humidity
    00:00 +21°C° 0.3 mm 1 mps 681 mmHg 89%
    01:00 +21°C° 0.2 mm 1 mps 681 mmHg 89%
    02:00 +21°C° 0.2 mm 1 mps 680 mmHg 89%
    03:00 +21°C° 0.2 mm 1 mps 680 mmHg 89%
    04:00 +21°C° 0.2 mm 1 mps 680 mmHg 89%
    05:00 +21°C° 0.2 mm 1 mps 680 mmHg 88%
    06:00 +21°C° 0.2 mm 1 mps 681 mmHg 88%
    07:00 +22°C° 0 mm 1 mps 681 mmHg 83%
    08:00 +24°C° 0 mm 1 mps 682 mmHg 77%
    09:00 +26°C° 0 mm 1 mps 683 mmHg 72%
    10:00 +27°C° 0 mm 1 mps 683 mmHg 67%
    11:00 +28°C° 0 mm 2 mps 683 mmHg 63%
    12:00 +29°C° 0 mm 2 mps 683 mmHg 59%
    13:00 +28°C° 0.7 mm 2 mps 682 mmHg 64%
    14:00 +27°C° 0.7 mm 2 mps 681 mmHg 68%
    15:00 +27°C° 0.7 mm 2 mps 680 mmHg 73%
    16:00 +25°C° 0.2 mm 1 mps 680 mmHg 79%
    17:00 +24°C° 0.2 mm 1 mps 681 mmHg 84%
    18:00 +23°C° 0.2 mm 1 mps 681 mmHg 90%
    19:00 +23°C° 0 mm 1 mps 681 mmHg 91%
    20:00 +20°C° 0 mm 0 mps 681 mmHg 91%
    21:00 +20°C° 0 mm 0 mps 682 mmHg 92%
    22:00 +22°C° 0 mm 1 mps 682 mmHg 91%
    23:00 +21°C° 0 mm 1 mps 681 mmHg 89%

    22 August, Wednesday

    Time Temperature Precipitation Wind Pressure Humidity
    00:00 +21°C° 0 mm 1 mps 681 mmHg 88%
    01:00 +21°C° 0 mm 1 mps 681 mmHg 88%
    02:00 +21°C° 0 mm 1 mps 680 mmHg 87%
    03:00 +21°C° 0 mm 1 mps 680 mmHg 87%
    04:00 +21°C° 0 mm 1 mps 680 mmHg 87%
    05:00 +21°C° 0 mm 1 mps 680 mmHg 86%
    06:00 +21°C° 0 mm 1 mps 681 mmHg 86%
    07:00 +23°C° 0 mm 1 mps 681 mmHg 79%
    08:00 +25°C° 0 mm 1 mps 682 mmHg 73%
    09:00 +27°C° 0 mm 1 mps 683 mmHg 66%
    10:00 +27°C° 0.5 mm 2 mps 683 mmHg 66%
    11:00 +28°C° 0.5 mm 2 mps 682 mmHg 67%
    12:00 +28°C° 0.5 mm 2 mps 682 mmHg 67%
    13:00 +27°C° 2.1 mm 2 mps 681 mmHg 72%
    14:00 +26°C° 2.1 mm 2 mps 681 mmHg 76%
    15:00 +25°C° 2.1 mm 2 mps 680 mmHg 81%
    16:00 +24°C° 0.4 mm 1 mps 680 mmHg 84%
    17:00 +23°C° 0.4 mm 1 mps 680 mmHg 87%
    18:00 +20°C° 0.4 mm 0 mps 681 mmHg 90%
    19:00 +20°C° 0 mm 0 mps 681 mmHg 89%
    20:00 +20°C° 0 mm 0 mps 681 mmHg 89%
    21:00 +20°C° 0 mm 0 mps 682 mmHg 89%
    22:00 +19°C° 0 mm 0 mps 681 mmHg 88%
    23:00 +19°C° 0 mm 0 mps 681 mmHg 87%

    23 August, Thursday

    Time Temperature Precipitation Wind Pressure Humidity
    00:00 +21°C° 0 mm 1 mps 681 mmHg 87%
    01:00 +21°C° 0 mm 1 mps 680 mmHg 86%
    02:00 +20°C° 0 mm 1 mps 680 mmHg 86%
    03:00 +20°C° 0 mm 1 mps 680 mmHg 86%
    04:00 +20°C° 0 mm 1 mps 680 mmHg 85%
    05:00 +20°C° 0 mm 1 mps 681 mmHg 85%
    06:00 +20°C° 0 mm 1 mps 681 mmHg 85%
    07:00 +22°C° 0 mm 1 mps 682 mmHg 80%
    08:00 +24°C° 0 mm 1 mps 682 mmHg 74%
    09:00 +26°C° 0 mm 1 mps 683 mmHg 69%
    10:00 +26°C° 0.5 mm 1 mps 683 mmHg 69%
    11:00 +26°C° 0.5 mm 1 mps 682 mmHg 70%
    12:00 +26°C° 0.5 mm 2 mps 682 mmHg 70%
    13:00 +26°C° 1 mm 1 mps 681 mmHg 74%
    14:00 +25°C° 1 mm 1 mps 681 mmHg 77%
    15:00 +25°C° 1 mm 1 mps 680 mmHg 80%
    16:00 +24°C° 0.6 mm 1 mps 680 mmHg 84%
    17:00 +23°C° 0.6 mm 1 mps 680 mmHg 87%
    18:00 +20°C° 0.6 mm 0 mps 681 mmHg 91%
    19:00 +22°C° 0.4 mm 1 mps 681 mmHg 90%
    20:00 +22°C° 0.4 mm 1 mps 681 mmHg 90%
    21:00 +21°C° 0.4 mm 1 mps 681 mmHg 90%
    22:00 +21°C° 0.4 mm 1 mps 681 mmHg 89%
    23:00 +21°C° 0.4 mm 1 mps 681 mmHg 89%
    Show more